Location: ????? ????
(37.9717°N, 23.4051°E)
Time: 10:51:56
(UTC+00:00)

Cosmos 1697 Rocket - Pass Details

Date: 18 April 2024
Orbit: 831 x 843 km, 71.0° (Epoch: 18 May)

Event Time Altitude Azimuth Distance (km) Brightness Sun altitude
Exits shadow 20:19:05 51° 298° (WNW) 1,052 3.4 -32.6°
Drops below altitude 10° 20:24:33 10° 12° (NNE) 2,469 5.5 -33.2°
Sets 20:27:05 0° 18° (NNE) 3,407 6.3 -33.5°
